This demonstration page uses our WeatherBlox Daily Observations layout. Learn more.

Left ArrowRight Arrow

39.08367, -84.50855

Hourly Observations for March 8, 2019

Temp ( °F °C ) Dew Point ( °F °C ) Humidity (%) Winds ( mph kmh ) Pressure ( in mb ) Visibility ( mi km ) Precip ( " mm )
12:53 am 00:53 Partly Cloudy 31 -0.6 27 -2.8 85 85 N N/A 30.30 1026 10 16 N/A
1:53 am 01:53 Cloudy 31 -0.6 27 -2.8 85 85 SSW 3 6 30.30 1026 10 16 N/A
2:53 am 02:53 Cloudy 31 -0.6 27 -2.8 85 85 N N/A 30.29 1026 7 11 N/A
3:00 am 03:00 Cloudy with Light Snow 31 -0.6 27 -2.8 85 85 NE 3 6 30.30 1026 6 10 N/A
3:35 am 03:35 Cloudy with Light Snow 31 -0.6 28 -2.2 89 89 NE 5 7 30.28 1025 4 6 N/A
3:53 am 03:53 Cloudy with Light Snow 31 -0.6 28 -2.2 89 89 NE 3 6 30.25 1024 4 6 N/A
4:08 am 04:08 Cloudy with Light Snow 31 -0.6 28 -2.2 89 89 NE 3 6 30.26 1025 5 8 N/A
4:19 am 04:19 Cloudy with Light Snow 31 -0.6 28 -2.2 89 89 NE 3 6 30.26 1025 3 5 N/A
4:22 am 04:22 Cloudy with Light Snow 31 -0.6 28 -2.2 89 89 NE 3 6 30.26 1025 3 4 N/A
4:44 am 04:44 Cloudy with Light Snow 31 -0.6 28 -2.2 89 89 NNE 5 7 30.25 1024 2 3 N/A
4:53 am 04:53 Cloudy with Light Snow 31 -0.6 28 -2.2 89 89 NE 6 9 30.23 1024 2 3 N/A
5:01 am 05:01 Cloudy with Light Snow 31 -0.6 29 -1.7 92 92 ENE 3 6 30.24 1024 3 4 N/A
5:12 am 05:12 Cloudy with Light Snow 31 -0.6 29 -1.7 92 92 NNE 5 7 30.24 1024 2 3 N/A
5:20 am 05:20 Cloudy with Light Snow 31 -0.6 29 -1.7 92 92 N 5 7 30.24 1024 2 3 N/A
5:27 am 05:27 Cloudy with Light Snow 31 -0.6 29 -1.7 92 92 NNE 6 9 30.24 1024 3 5 N/A
5:36 am 05:36 Cloudy with Light Snow 31 -0.6 29 -1.7 92 92 NNE 5 7 30.25 1024 4 6 N/A
5:46 am 05:46 Cloudy with Mist and Fog 31 -0.6 29 -1.7 92 92 NNE 3 6 30.25 1024 5 8 N/A
5:53 am 05:53 Cloudy with Mist and Fog 31 -0.6 29 -1.7 92 92 NE 3 6 30.22 1023 6 10 N/A
6:00 am 06:00 Cloudy with Mist and Fog 31 -0.6 29 -1.7 92 92 NNE 3 6 30.25 1024 5 8 N/A
6:19 am 06:19 Cloudy with Mist and Fog 31 -0.6 29 -1.7 92 92 NNE 5 7 30.25 1024 5 8 N/A
6:48 am 06:48 Cloudy with Mist and Fog 30 -1 28 -2 93 93 NE 5 7 30.22 1023 5 8 N/A
6:53 am 06:53 Cloudy with Light Snow 31 -0.6 29 -1.7 92 92 NNE 5 7 30.21 1023 5 8 0.01 0.25
7:53 am 07:53 Cloudy with Light Snow 32 undefined 29 -1.7 88 88 NNE 3 6 30.21 1023 3 4 0.01 0.25
8:53 am 08:53 Cloudy with Light Snow 32 undefined 30 -1.1 92 92 NNE 5 7 30.20 1023 1 2 0.01 0.25
9:16 am 09:16 Cloudy with Mist and Fog 32 undefined 30 -1.1 92 92 NNE 5 7 30.22 1023 3 4 N/A
9:53 am 09:53 Cloudy with Mist and Fog 33 0.6 30 -1.1 89 89 NE 5 7 30.19 1023 3 5 N/A
10:53 am 10:53 Cloudy 35 1.7 31 -0.6 85 85 N N/A 30.18 1022 10 16 N/A
11:53 am 11:53 Cloudy 35 1.7 31 -0.6 85 85 NNE 6 9 30.19 1022 10 16 N/A
12:53 pm 12:53 Cloudy 36 2.2 31 -0.6 82 82 NE 5 7 30.17 1022 10 16 N/A
1:45 pm 13:45 Cloudy with Light Snow 38 3.3 34 1.1 86 86 NE 7 11 30.16 1021 5 8 N/A
1:53 pm 13:53 Cloudy with Light Rain 38 3.3 34 1.1 86 86 NNE 6 9 30.14 1021 6 10 N/A
2:38 pm 14:38 Cloudy 37 2.8 33 0.6 86 86 NE 8 13 30.13 1020 9 14 N/A
2:53 pm 14:53 Cloudy 38 3.3 33 0.6 83 83 ENE 7 11 30.13 1020 10 16 N/A
3:53 pm 15:53 Cloudy 38 3.3 33 0.6 83 83 NE 8 13 30.13 1020 10 16 N/A
4:53 pm 16:53 Cloudy 39 3.9 33 0.6 79 79 ENE 5 7 30.13 1020 10 16 N/A
5:53 pm 17:53 Cloudy 38 3.3 32 undefined 79 79 NE 6 9 30.12 1020 10 16 N/A
6:53 pm 18:53 Cloudy 38 3.3 31 -0.6 76 76 ESE 5 7 30.13 1020 10 16 N/A
7:53 pm 19:53 Cloudy 37 2.8 32 undefined 82 82 E 3 6 30.15 1021 10 16 N/A
8:53 pm 20:53 Cloudy 37 2.8 32 undefined 82 82 NE 7 11 30.16 1022 10 16 N/A
9:53 pm 21:53 Cloudy 36 2.2 31 -0.6 82 82 ENE 3 6 30.17 1022 10 16 N/A
10:53 pm 22:53 Cloudy 36 2.2 31 -0.6 82 82 NE 7 11 30.15 1021 10 16 N/A
11:48 pm 23:48 Cloudy 36 2 30 -1 81 81 N N/A 30.18 1022 10 16 N/A
11:53 pm 23:53 Cloudy 37 2.8 31 -0.6 79 79 N N/A 30.17 1022 10 16 N/A

Powered by AerisWeather